Wind_Speed
71 70 70 70 68 67 68 69 68 67 64 60 59 58 57 55 52 50 49 50 51 53 52 50 48 49 50 49 49 51 51 51 49 46 43 39 37 36 34 33 33 32 31 31 31 31 30 29 29 30 31 31 32 35 38 39 39 38 40 44 48 50 53 55 55 58 62 64 66 68 69 72 75 75 75 75 78 82 85 87 89 89 86 83 81
70 68 68 68 66 66 68 68 67 64 61 58 58 58 56 55 53 51 50 51 52 54 53 51 49 50 51 50 49 50 50 49 46 42 38 36 35 34 32 31 31 31 31 31 30 30 29 28 29 30 30 31 33 35 37 38 39 39 41 44 48 51 53 55 56 58 62 65 67 69 70 73 75 76 76 76 77 82 86 87 90 91 89 86 83
70 68 67 65 64 65 66 65 63 60 57 56 56 56 54 52 51 50 50 51 52 54 53 51 50 50 50 49 49 48 47 46 43 37 35 34 33 31 29 29 30 30 30 30 29 29 29 28 29 29 29 30 33 35 36 38 39 40 41 44 48 51 53 55 57 58 62 65 66 67 70 73 75 76 77 77 78 83 87 88 90 92 91 89 85
71 68 66 65 64 64 64 62 59 57 55 54 55 54 52 50 47 48 49 50 52 53 51 50 49 49 48 48 47 45 45 43 38 34 33 32 30 28 27 28 28 29 29 29 29 29 29 28 29 29 30 31 33 35 37 38 39 40 40 43 48 52 53 55 57 59 61 64 66 66 69 73 75 76 77 77 78 83 87 89 91 93 93 90 87
70 69 67 65 64 64 63 61 58 56 55 54 54 54 52 48 45 45 47 49 50 51 49 48 47 46 46 46 45 43 42 39 35 32 32 30 27 26 26 27 27 28 29 30 30 29 29 29 30 31 31 32 35 37 38 38 39 38 39 44 49 52 54 56 58 60 62 64 66 66 69 74 76 77 78 77 79 83 88 90 91 94 94 92 89
68 68 66 65 64 64 63 60 58 57 56 55 54 54 52 48 44 43 44 46 48 48 46 46 45 44 44 44 43 41 39 36 33 31 29 26 25 26 26 26 27 28 29 30 30 30 30 31 32 32 33 35 37 39 38 38 37 38 41 45 49 53 55 57 58 60 62 65 66 66 69 74 76 77 78 78 79 83 88 90 92 94 95 93 89
67 67 65 63 63 63 61 59 57 57 56 55 54 54 51 47 44 42 42 43 45 45 44 43 43 43 43 42 41 39 36 33 32 29 26 25 25 26 27 27 27 28 29 30 30 30 31 32 33 34 36 39 39 39 39 38 37 39 42 46 50 54 56 58 60 61 62 65 66 66 69 74 76 77 78 78 79 84 88 90 92 94 96 94 90
68 66 65 62 61 61 60 57 56 56 55 54 53 52 49 45 43 42 41 42 44 43 42 42 42 42 41 41 40 36 33 32 31 27 24 25 26 28 28 28 28 28 29 30 30 30 32 33 36 37 39 40 40 39 40 39 39 41 45 49 53 56 57 59 61 61 62 65 66 66 69 74 76 77 78 78 80 84 89 91 92 95 97 95 91
70 68 65 62 60 60 59 56 55 54 53 52 51 50 47 43 41 40 40 42 43 42 40 41 41 40 40 40 37 33 31 31 29 25 25 26 27 29 29 29 29 28 28 29 30 31 32 35 37 38 39 39 40 40 40 41 43 45 48 51 54 57 59 61 61 61 62 65 66 66 69 74 77 78 78 78 80 85 89 92 93 96 98 96 91
69 69 65 62 60 60 59 56 54 54 53 51 50 48 44 41 39 39 40 42 43 42 40 39 40 40 39 38 34 31 31 30 28 26 26 27 29 30 30 30 29 28 28 29 30 31 33 35 37 38 38 39 40 41 43 44 46 47 50 53 56 58 60 60 60 60 62 64 65 67 69 73 77 78 77 77 80 85 89 92 93 96 99 97 92
69 70 66 63 62 60 58 56 54 55 54 51 50 46 43 40 38 39 41 42 43 42 39 38 40 39 38 36 33 31 31 30 28 27 27 28 30 30 31 31 30 29 29 30 30 31 33 35 36 37 37 39 41 42 43 44 46 48 52 55 57 59 59 58 58 60 62 64 65 67 69 73 76 77 76 77 80 85 89 91 92 96 99 97 92
68 71 68 65 63 61 58 56 56 56 55 53 49 45 42 40 39 40 42 42 43 40 38 38 40 38 37 35 32 31 31 30 28 28 28 29 30 31 32 32 31 30 30 30 30 32 33 34 35 37 38 39 40 41 43 45 48 51 54 56 56 56 55 56 58 60 61 63 65 67 69 73 76 77 75 77 81 85 89 91 92 95 99 98 93
69 73 71 66 64 61 59 58 58 58 57 55 50 45 43 42 41 41 42 42 42 39 37 39 40 38 36 34 32 31 31 31 30 29 29 30 30 32 33 33 32 31 31 31 31 31 32 33 35 37 39 40 41 43 46 48 51 52 53 53 52 51 53 56 58 60 61 63 65 67 69 73 76 75 74 77 81 85 89 91 92 95 99 98 93
71 73 72 69 66 63 60 59 60 60 59 56 51 46 44 43 42 42 43 42 41 39 38 39 39 37 36 34 32 31 32 32 30 29 30 30 31 32 33 33 33 33 32 31 31 33 33 34 36 38 40 41 44 47 49 50 51 51 50 48 47 49 53 56 58 59 60 63 65 66 69 74 75 73 74 78 82 85 89 91 92 95 99 98 93
74 74 74 72 68 64 62 62 61 61 60 58 52 48 47 46 44 44 43 43 42 40 39 39 39 38 36 35 33 31 33 33 31 30 31 31 32 33 34 34 34 34 33 33 34 35 36 36 37 39 40 43 46 49 49 49 49 47 45 45 47 51 54 55 57 58 60 62 65 67 71 74 73 72 75 79 82 86 90 91 91 94 99 99 93
75 74 74 74 71 67 65 65 63 62 61 59 54 50 49 48 46 45 44 43 41 40 40 40 40 39 37 35 33 32 34 35 33 32 32 33 33 34 35 35 34 34 35 36 37 38 38 38 38 38 41 44 46 45 44 44 43 43 44 46 48 51 53 55 57 58 60 63 66 68 72 73 72 72 75 79 83 87 90 91 91 94 99 99 94
74 75 74 73 72 70 68 68 66 64 63 60 55 53 52 50 48 47 46 44 41 41 41 41 41 40 38 36 34 34 36 36 34 34 34 34 35 35 36 36 35 36 38 38 39 40 40 40 39 39 42 44 43 41 40 41 41 43 46 48 49 51 53 55 57 57 60 63 66 69 72 72 70 72 76 80 83 87 90 90 90 94 98 98 94
71 73 76 76 75 73 71 71 69 67 65 61 58 56 54 52 50 48 47 44 42 42 43 43 42 41 39 38 36 36 37 36 35 36 36 36 36 36 37 37 37 38 39 40 41 42 42 42 40 39 41 42 40 40 41 41 42 45 47 49 51 52 54 55 56 56 59 63 66 69 71 70 70 73 76 80 84 87 90 89 90 94 97 98 95
66 66 70 76 78 76 75 74 72 69 67 63 60 58 57 54 52 51 49 45 42 43 44 44 44 42 41 40 38 37 37 37 37 38 38 38 39 39 38 38 39 40 40 41 42 42 43 42 40 39 41 41 40 42 43 43 44 46 48 50 52 53 54 55 56 57 59 63 66 69 69 69 70 73 77 80 84 88 89 89 90 94 97 98 95
69 67 69 75 78 77 77 76 74 71 68 66 63 60 58 56 54 52 50 46 43 44 44 45 45 44 43 42 40 38 37 38 38 38 39 40 41 41 41 40 41 42 42 42 41 41 42 41 39 40 43 43 42 44 45 45 46 47 49 51 53 54 56 57 56 57 60 63 66 68 68 69 71 74 77 81 85 88 89 88 90 94 96 98 96
68 71 73 75 76 77 77 77 75 72 70 68 65 62 59 57 55 53 51 47 44 44 46 46 47 46 44 43 41 39 38 38 38 39 40 42 43 43 42 42 43 43 43 42 41 41 41 40 40 42 45 46 45 45 46 47 47 47 49 52 55 57 58 57 57 59 61 64 66 67 68 70 72 74 78 81 85 88 88 88 90 94 96 98 97
63 65 67 69 71 74 76 76 75 73 71 69 66 63 61 58 56 55 52 48 45 46 47 47 47 47 47 45 42 39 37 38 40 40 42 44 45 44 44 44 45 45 43 41 40 39 40 42 43 44 45 47 47 46 47 48 47 47 50 55 58 59 58 57 59 61 62 64 66 68 69 70 71 75 78 81 85 87 87 88 90 94 96 98 98
58 58 58 60 63 67 71 74 74 73 72 71 67 63 62 60 58 57 53 48 47 48 48 49 49 49 48 45 43 40 39 41 42 43 44 46 46 45 44 44 45 42 38 37 37 37 40 42 44 45 45 46 46 46 47 49 49 50 55 58 60 60 59 59 61 62 63 65 67 68 69 69 72 75 78 81 84 86 86 88 91 94 96 98 98
57 57 56 55 58 61 65 69 72 72 72 70 67 65 63 61 59 57 53 50 49 50 50 51 51 49 47 45 44 42 42 43 44 44 45 46 46 44 42 41 40 36 33 33 36 40 44 46 48 49 49 48 47 46 48 50 52 54 57 59 60 60 61 61 62 63 64 66 67 68 68 69 72 76 78 81 84 85 85 87 91 94 96 98 98
53 57 58 56 56 57 60 63 66 70 71 69 68 66 65 62 60 58 55 52 52 52 53 52 50 48 47 46 46 44 43 45 46 45 46 47 47 45 42 39 36 33 34 38 42 46 50 52 52 53 52 49 46 46 49 53 53 54 57 60 61 63 63 63 62 63 64 66 67 67 68 70 73 76 79 81 83 84 85 87 91 94 96 97 97
50 56 59 60 58 56 56 58 61 65 68 69 69 67 65 63 61 59 57 55 55 54 54 52 49 48 48 48 47 45 44 46 48 47 47 48 48 46 43 40 38 37 41 46 48 50 52 53 52 50 48 46 45 47 51 54 54 55 58 61 64 66 65 62 61 62 64 65 66 67 68 71 74 77 79 81 83 84 85 88 91 94 96 97 97
49 53 56 59 60 58 55 56 58 61 65 68 69 68 66 64 62 61 59 58 57 56 54 52 50 50 50 49 48 46 45 47 49 49 48 48 48 45 43 43 43 45 47 49 50 50 51 50 49 49 48 47 48 50 53 54 54 57 60 63 66 66 62 59 61 63 65 65 66 67 69 72 74 77 80 82 83 84 85 88 91 94 96 97 97
47 52 54 56 58 59 58 57 56 58 61 65 67 67 66 64 63 63 62 61 59 57 55 53 52 52 51 49 49 48 46 48 50 49 48 48 47 45 46 47 48 48 49 51 51 51 51 49 49 51 51 51 51 52 53 54 57 60 63 66 67 64 59 59 62 64 65 66 66 67 70 73 75 77 80 82 82 84 86 89 92 94 96 97 97
48 52 55 57 59 61 60 60 58 57 59 62 64 65 66 65 66 66 64 62 60 58 56 54 53 53 52 50 49 49 48 49 50 49 47 47 47 46 46 46 46 46 49 51 53 53 51 51 52 53 52 52 52 53 54 58 61 63 66 67 65 61 59 61 63 64 65 65 66 68 71 74 76 78 80 81 82 84 87 89 92 94 95 96 97
50 53 52 54 60 64 63 62 61 59 59 60 61 62 64 65 67 67 65 62 60 59 57 55 54 54 53 51 51 50 49 50 51 50 48 48 48 47 46 45 45 47 49 51 54 54 53 53 53 51 51 53 54 55 58 61 63 65 66 65 62 59 60 62 64 64 65 65 67 69 72 74 77 79 80 81 83 85 87 89 92 94 95 96 96
50 56 55 51 53 61 65 66 64 62 61 60 59 59 61 64 67 68 66 63 61 60 57 55 55 55 54 53 53 52 51 52 53 51 49 49 49 47 47 47 47 48 50 52 55 57 56 54 52 51 52 54 56 58 60 62 64 65 64 61 58 58 61 64 65 65 65 66 68 71 73 75 78 79 80 81 83 86 87 90 92 94 95 96 96
53 57 61 56 50 52 60 65 66 66 65 63 60 58 59 61 64 67 67 65 62 60 58 57 56 56 55 54 54 53 53 54 54 52 51 51 51 50 49 47 48 50 52 53 54 56 56 55 54 54 55 57 58 59 60 61 62 61 58 56 57 60 63 65 65 65 66 68 70 73 74 76 78 79 80 82 84 86 88 90 92 94 95 95 96
56 50 52 54 51 50 54 60 64 66 66 65 64 61 59 59 62 64 65 65 63 61 59 58 57 56 55 54 54 54 55 55 54 53 53 53 53 53 52 50 50 52 55 55 55 56 56 55 56 57 58 58 58 58 59 59 59 57 55 56 59 63 64 65 65 65 66 69 72 73 74 76 78 79 81 83 85 87 89 91 93 94 95 96 96
57 50 50 54 57 61 64 64 65 66 65 64 66 65 62 60 61 61 62 63 63 62 60 59 58 57 56 54 54 54 55 55 54 54 54 55 56 56 55 53 53 54 56 57 58 57 56 56 57 58 58 58 58 59 60 61 58 56 56 59 62 65 66 65 65 66 68 70 72 73 74 77 79 80 82 84 86 88 89 91 93 95 96 96 97
62 59 61 61 61 67 74 75 74 74 72 69 69 68 66 63 61 60 60 61 62 62 62 61 59 57 56 55 55 56 57 56 54 54 55 56 58 58 55 54 55 56 57 58 58 58 57 57 57 57 57 59 60 61 60 58 56 56 59 62 64 66 66 65 65 67 69 71 71 73 76 78 80 81 83 85 87 89 90 92 94 95 97 98 98
73 69 70 70 66 62 64 71 78 80 77 74 73 70 68 66 64 61 60 60 61 63 63 60 58 57 57 56 56 57 57 56 55 54 55 56 57 57 54 53 53 56 57 58 58 57 56 56 57 57 58 60 61 60 58 56 56 58 61 64 66 66 65 65 66 68 69 71 73 75 78 80 81 83 84 86 88 90 91 93 94 96 98 99 99
85 79 76 77 76 67 59 63 74 79 76 74 73 72 70 69 66 64 62 60 61 63 62 58 57 58 58 57 56 56 56 56 55 54 54 55 55 55 55 54 55 59 61 61 59 57 56 57 59 60 60 59 58 57 56 56 58 61 63 65 66 65 65 65 67 69 70 73 75 78 80 81 82 84 86 87 89 91 92 93 94 96 99 100 100
92 89 83 81 82 79 73 70 74 76 75 74 72 72 71 70 68 66 65 63 63 63 61 59 59 61 60 57 56 57 59 60 59 58 58 59 59 59 59 59 59 62 63 62 60 59 59 59 60 60 58 56 54 54 56 59 61 63 65 65 65 64 65 67 69 71 74 76 78 79 80 82 83 85 87 89 90 92 92 94 95 97 99 101 101
90 94 92 89 87 87 86 81 77 75 75 75 74 72 72 71 69 68 67 66 65 63 62 61 62 61 58 57 57 59 61 62 61 61 63 64 63 63 62 60 60 61 62 61 59 59 59 59 59 57 55 54 54 56 58 60 61 63 64 65 65 66 69 71 73 76 77 78 78 79 81 83 85 87 88 90 91 92 93 94 96 98 100 101 101
83 89 94 95 93 92 90 87 81 76 75 76 76 75 73 72 71 69 68 67 66 64 63 63 63 61 58 57 58 59 61 63 63 63 64 65 64 64 64 63 63 64 64 63 62 62 61 60 58 58 57 56 57 58 58 59 61 63 65 67 69 71 73 74 75 76 77 77 78 80 82 84 86 88 90 91 91 92 94 95 97 99 100 101 102
78 82 87 91 93 93 91 88 83 79 77 76 76 75 73 72 71 69 68 67 65 65 65 65 64 63 62 61 60 60 62 63 63 63 64 65 65 66 66 67 67 67 66 66 66 66 64 62 62 63 63 62 61 60 60 61 63 65 67 69 71 73 73 73 73 74 75 77 79 81 84 86 88 89 90 91 92 93 95 96 98 100 101 101 102
73 76 80 82 85 88 88 85 82 79 77 76 74 73 72 71 70 69 68 66 66 66 66 65 65 66 66 65 64 64 64 64 64 64 65 65 65 65 65 66 66 65 64 64 65 65 65 65 65 65 65 64 64 65 64 64 65 67 69 71 72 72 71 71 71 73 76 79 82 84 85 87 89 89 90 91 93 94 96 98 99 101 101 102 102
65 69 72 75 77 79 80 80 78 76 75 74 73 72 71 70 69 68 67 66 66 66 65 65 66 67 68 67 66 66 66 66 67 67 67 67 67 66 66 66 65 63 62 62 62 63 63 64 64 65 66 67 68 68 68 68 69 70 70 70 70 69 69 71 73 76 80 82 84 86 87 88 89 90 91 92 94 96 98 99 101 101 101 101 101
57 60 64 67 70 72 74 74 73 73 72 72 72 71 70 69 69 68 66 66 66 65 64 64 67 68 67 66 66 67 67 68 68 68 69 70 70 68 66 65 65 63 63 64 64 64 64 65 66 68 70 71 71 71 71 71 71 69 68 69 69 70 72 75 78 82 84 85 86 87 88 89 90 91 92 94 96 97 99 100 101 101 101 101 100
50 53 56 60 63 65 66 67 67 68 68 68 68 69 68 68 67 67 66 65 64 63 63 64 65 65 65 65 66 67 68 69 69 69 70 70 69 66 63 63 64 65 64 63 64 65 67 69 70 72 74 74 73 73 72 70 69 69 70 72 74 76 78 81 82 84 85 85 86 87 89 90 91 92 94 96 98 99 100 101 101 101 101 101 100
48 49 51 53 55 56 58 59 60 62 63 64 65 65 65 65 65 65 65 64 64 63 63 63 63 62 62 62 63 64 65 66 66 67 67 67 66 66 64 64 65 65 63 62 64 67 70 72 74 75 75 74 72 71 69 69 70 72 75 78 80 81 82 83 83 83 84 85 87 88 90 91 93 94 96 98 99 100 101 102 101 101 101 100 99
51 51 51 51 51 51 52 53 54 56 58 60 61 61 61 60 60 60 60 61 61 61 60 60 59 58 58 57 57 59 60 60 60 60 60 61 62 63 63 63 64 64 63 65 69 72 72 73 74 73 71 69 69 70 71 72 74 77 79 82 83 83 83 82 82 83 85 87 88 90 91 93 95 96 98 99 100 101 102 102 101 101 100 99 98
52 52 52 52 51 51 51 51 51 52 54 56 58 58 57 57 56 55 55 56 56 57 57 57 55 53 53 54 55 56 56 56 56 55 55 57 59 60 61 62 64 64 65 68 71 72 72 72 71 70 68 69 71 73 75 76 78 80 81 82 83 83 82 82 83 85 87 89 91 92 94 95 97 99 100 101 101 101 102 102 101 101 100 99 98
53 53 53 53 52 52 52 52 52 51 52 53 55 56 56 56 55 55 54 54 54 55 55 55 53 52 52 53 54 54 54 54 55 54 55 57 59 61 63 65 67 68 69 70 72 72 73 72 71 70 71 72 74 75 77 80 81 82 81 81 82 83 83 84 86 88 90 92 94 95 97 98 99 100 101 101 102 102 102 101 101 101 100 99 99
52 53 53 54 54 55 55 56 55 54 52 52 53 53 53 54 55 55 55 54 55 57 58 56 54 54 55 55 55 55 55 57 58 59 60 61 63 65 68 70 71 72 73 73 74 75 74 73 72 73 73 74 75 77 80 82 82 82 82 82 83 85 87 88 91 93 95 96 97 98 99 99 100 101 101 101 102 102 102 102 102 101 100 100 99
51 52 53 54 55 57 58 59 58 57 55 53 52 51 51 52 52 52 53 53 54 57 59 59 58 57 58 58 59 60 62 63 64 65 66 67 68 71 73 74 75 75 77 77 76 75 74 72 73 75 76 76 78 81 82 83 83 84 85 86 88 90 92 94 95 97 98 98 99 99 100 100 101 101 101 102 102 102 102 102 102 101 101 100 98
Wind_Direction
241 242 243 244 245 246 248 250 252 253 255 256 256 257 257 258 257 256 258 260 263 266 268 270 271 273 276 279 281 284 286 287 288 289 292 293 292 292 294 297 298 299 301 303 303 302 302 303 304 306 306 304 301 301 304 307 310 310 311 316 322 327 330 332 334 335 337 339 341 341 341 342 343 344 344 343 344 346 347 348 349 348 347 346 344
242 242 243 244 245 246 247 249 251 253 255 255 256 256 257 257 257 255 256 258 261 264 267 269 271 273 276 279 282 284 285 285 286 289 291 291 290 291 295 296 297 299 301 302 301 300 300 301 303 304 305 303 302 304 307 308 309 308 309 315 321 326 329 331 333 334 336 339 341 340 340 341 342 343 343 343 344 346 347 348 349 348 347 346 345
242 242 243 243 244 245 247 249 251 252 254 253 254 255 256 256 256 255 254 256 259 263 267 269 271 273 277 280 282 283 283 283 286 288 288 287 288 291 293 295 297 299 300 300 299 298 297 298 300 301 302 303 305 308 310 309 309 308 309 315 322 326 328 329 331 333 335 338 339 339 338 339 341 341 342 342 343 346 347 348 348 348 347 346 345
242 242 242 243 243 245 246 248 250 251 252 252 252 254 255 255 255 254 254 255 259 263 266 269 271 274 277 279 280 280 281 282 285 286 285 285 288 290 292 294 297 299 299 298 297 295 294 294 296 297 299 303 306 310 311 310 309 308 310 316 322 325 326 328 330 332 334 336 338 337 337 339 340 341 341 341 342 345 347 347 348 348 347 345 344
241 241 241 242 243 244 246 248 249 250 250 251 252 254 255 256 255 254 254 256 259 262 266 269 271 274 276 277 277 278 279 281 283 282 281 284 286 288 290 294 297 298 298 297 295 293 291 292 294 295 298 302 305 308 311 310 308 308 311 317 322 324 325 327 328 330 332 335 336 335 336 338 339 340 340 341 342 344 347 347 348 348 347 345 344
239 240 239 241 242 244 246 247 248 249 250 251 252 254 256 256 256 255 255 257 259 262 265 268 270 272 273 274 275 276 277 278 279 278 280 282 283 285 288 292 295 297 297 295 293 291 290 292 294 297 299 301 303 307 310 310 307 307 312 319 322 323 324 325 326 328 330 333 334 334 335 337 338 339 340 340 341 344 346 347 348 348 347 345 344
237 238 238 239 241 243 245 246 246 248 249 250 252 254 256 257 256 255 255 256 259 261 263 266 268 269 270 271 271 273 275 275 274 276 277 279 281 283 287 290 294 296 297 295 292 290 290 292 295 298 299 300 302 306 309 308 305 308 314 319 321 322 323 323 325 327 329 332 333 332 334 336 337 338 339 340 341 343 345 347 347 348 347 345 344
236 237 237 237 239 242 244 245 245 247 248 250 252 254 256 256 255 255 254 255 256 259 261 263 264 266 266 267 268 271 271 271 271 273 274 276 279 282 285 288 291 294 297 296 292 290 291 294 296 298 299 300 303 305 307 307 307 310 315 318 320 321 321 322 323 325 328 330 331 331 332 335 336 337 338 339 341 343 345 346 347 348 347 345 344
236 236 237 237 238 240 243 244 245 246 248 249 251 254 255 255 255 255 254 254 255 256 257 259 261 262 262 264 267 268 267 267 269 269 269 274 279 282 285 287 290 293 296 295 291 291 294 297 299 300 301 303 305 305 306 308 310 312 314 316 318 319 319 320 321 324 327 329 330 330 331 333 335 336 337 338 340 343 344 345 346 347 347 345 344
236 236 236 236 237 239 241 243 244 246 248 249 250 252 254 254 254 253 252 253 254 255 256 257 258 259 260 262 265 265 263 264 265 265 268 274 278 281 285 287 289 292 294 294 293 294 299 301 301 303 305 306 307 307 308 309 311 312 314 316 317 317 318 319 321 324 327 329 329 330 330 332 333 334 336 338 340 342 344 344 346 347 347 346 344
236 236 236 236 237 238 240 242 243 246 248 249 250 252 254 254 253 252 251 252 254 255 255 255 256 257 258 261 262 260 261 263 263 263 268 274 277 281 285 287 289 291 291 292 295 298 301 302 302 304 307 308 309 308 308 309 311 313 315 316 316 316 317 319 322 325 327 328 328 329 330 331 332 334 336 338 340 342 343 344 345 346 347 346 344
236 237 236 236 236 237 239 241 243 246 248 250 251 252 254 254 253 252 252 253 254 255 254 254 255 256 257 259 258 258 260 261 261 263 268 273 277 281 284 286 289 289 288 290 295 299 300 301 303 305 307 307 307 305 306 308 311 313 315 316 316 317 319 321 323 325 327 327 328 328 329 330 331 333 335 338 339 341 342 343 344 346 347 346 344
234 236 236 236 236 237 238 240 242 245 247 249 250 251 253 254 253 253 254 255 256 255 253 253 254 255 255 256 256 256 258 259 259 263 269 272 276 280 284 288 289 287 285 288 294 297 298 299 300 302 304 303 302 303 306 308 311 313 315 315 317 319 321 322 323 325 325 326 327 327 327 328 330 333 335 337 339 341 342 342 343 345 347 347 344
232 235 236 237 237 237 238 239 241 244 246 249 249 250 251 252 253 254 255 256 256 253 251 252 253 254 254 253 254 254 256 257 259 264 268 271 275 280 285 288 289 286 285 287 291 294 295 295 295 297 300 302 304 306 307 308 310 313 314 316 318 321 322 322 322 323 324 325 326 326 326 327 330 333 335 337 338 340 341 342 343 345 347 347 345
231 234 236 238 238 238 238 239 241 243 245 248 248 248 249 250 252 253 254 255 255 253 251 252 253 253 252 251 252 253 254 257 260 264 267 270 274 279 284 288 289 288 286 285 288 291 291 290 292 296 301 305 307 307 307 309 312 313 315 317 319 320 319 319 321 322 323 324 325 324 324 326 330 332 335 336 338 339 340 341 342 345 347 347 345
231 233 236 238 239 239 239 239 240 241 243 246 246 246 247 249 250 252 253 254 254 252 251 251 251 251 250 251 251 251 253 257 260 264 267 271 275 279 284 287 290 290 288 286 286 288 288 290 293 298 304 308 309 309 311 314 315 315 316 317 317 316 316 318 320 322 323 324 323 323 323 326 329 332 334 336 337 339 339 340 342 344 347 347 345
234 235 236 239 240 240 240 240 240 240 241 243 244 244 246 247 249 250 252 252 252 251 250 250 250 250 249 250 250 249 252 256 261 265 269 272 276 280 284 287 290 292 292 289 286 286 287 290 294 299 304 308 310 313 316 317 316 315 315 316 315 314 315 317 319 322 323 323 322 322 323 326 329 332 334 335 336 338 339 339 341 344 346 347 345
236 237 238 239 240 240 240 240 240 239 240 241 241 242 244 246 247 248 250 250 251 251 250 249 249 249 248 249 249 249 252 256 261 265 269 273 277 280 284 286 289 293 295 293 289 287 287 290 295 299 302 305 309 311 314 315 314 314 314 314 314 314 315 316 319 321 322 321 320 321 322 326 329 331 333 334 336 337 338 339 341 344 346 347 345
237 238 238 238 238 238 239 239 239 239 239 240 240 241 242 244 245 246 248 248 249 249 249 248 249 248 247 248 248 249 253 257 261 265 269 273 277 280 283 287 290 294 296 294 291 289 288 291 295 297 298 301 306 308 311 312 311 312 314 314 313 314 315 316 318 321 320 319 319 320 323 326 329 330 332 334 335 336 337 339 341 343 346 347 345
238 237 238 239 238 238 238 239 239 239 239 239 239 239 241 242 243 245 246 247 247 248 248 247 248 248 248 248 249 251 255 259 262 266 270 274 278 282 286 289 292 294 295 294 291 290 290 292 294 293 294 298 303 307 310 312 310 310 312 314 314 315 316 317 319 320 319 318 319 320 323 326 328 329 332 333 335 336 337 338 340 343 345 347 346
235 234 236 239 238 237 238 238 238 238 238 238 238 238 239 241 242 244 245 246 246 246 246 246 247 248 249 249 249 251 256 261 265 268 272 276 279 283 287 290 291 292 292 291 290 290 291 293 293 293 294 297 300 305 311 314 311 310 312 315 316 317 317 318 319 318 317 318 319 321 323 325 327 329 331 333 334 335 336 338 340 342 345 346 346
237 236 237 238 237 236 237 237 238 237 237 237 237 237 238 239 241 242 244 244 244 244 244 245 246 248 249 249 251 253 258 263 267 269 272 276 279 284 288 290 290 289 289 289 289 290 292 294 296 297 297 297 299 303 309 312 311 311 313 316 318 318 318 317 317 316 316 317 318 321 323 324 326 328 330 332 333 334 335 337 339 341 344 346 346
241 240 239 238 236 236 236 236 237 236 236 236 236 236 237 238 239 241 242 242 242 242 243 244 245 247 249 250 252 254 258 262 266 269 272 276 281 287 290 290 288 286 286 286 286 289 293 297 300 301 299 297 299 302 306 308 309 309 312 316 318 318 317 315 314 314 315 316 318 320 322 323 325 327 329 331 333 334 335 337 338 341 343 345 346
245 243 241 239 238 237 236 236 236 235 236 236 235 235 236 237 238 240 241 241 241 241 242 243 244 246 249 250 252 254 257 262 265 268 273 276 281 287 290 289 287 286 286 286 287 291 295 297 300 301 298 296 299 301 303 307 310 310 312 315 317 316 315 313 312 312 314 316 317 319 320 322 324 326 328 330 332 333 334 336 338 340 343 345 346
249 247 243 241 240 239 238 237 237 236 236 236 235 235 235 236 238 239 239 239 239 240 241 242 244 246 248 250 252 254 257 262 265 268 272 275 279 284 287 288 288 288 288 290 291 294 297 297 299 300 298 297 298 299 302 308 312 311 311 313 314 313 313 312 311 312 314 315 316 318 320 321 323 325 327 329 330 332 334 335 337 339 342 344 345
247 251 248 244 241 240 240 239 238 237 236 236 235 235 234 235 236 238 239 238 238 239 241 242 244 246 248 250 252 255 258 261 265 268 270 273 277 282 285 285 285 285 286 288 290 294 297 298 298 298 297 297 299 301 304 309 311 310 310 310 310 311 311 311 310 312 313 314 315 317 319 320 322 324 326 327 329 331 333 335 336 339 342 344 345
238 249 252 249 245 242 242 241 239 238 237 236 235 235 234 234 235 237 238 239 239 239 241 243 243 245 247 249 252 254 256 259 263 267 269 272 277 281 282 281 283 285 286 287 290 293 296 296 295 295 296 298 301 304 306 309 309 308 308 308 308 309 309 308 309 311 312 314 315 316 318 319 321 323 325 326 329 331 333 334 336 338 341 343 344
230 241 252 254 249 244 243 242 241 240 238 237 236 235 234 233 234 236 237 238 239 241 241 242 244 245 247 249 251 253 255 258 262 266 270 274 278 280 280 280 281 285 288 288 289 290 290 291 292 294 296 299 302 303 305 305 304 304 305 305 306 306 306 306 308 311 312 313 315 315 317 318 320 322 324 325 328 330 332 333 335 338 341 343 344
228 238 249 254 252 248 245 243 243 242 241 239 238 236 235 233 234 236 237 238 240 242 243 244 245 247 249 250 252 253 255 258 261 266 270 274 277 280 282 280 280 284 288 288 285 283 283 288 292 294 296 298 298 298 299 299 300 301 302 303 304 304 304 306 309 311 312 313 314 315 316 318 319 321 323 325 327 330 331 333 335 337 340 342 343
226 232 239 247 251 249 246 243 243 243 242 241 240 237 235 234 235 236 237 239 240 242 244 245 247 249 251 252 253 255 256 258 260 264 267 271 275 279 281 280 280 284 287 285 282 281 284 289 293 293 292 292 292 294 296 297 297 299 300 301 302 303 305 308 310 310 311 312 313 314 315 317 318 320 322 324 327 329 330 332 334 336 339 341 342
222 226 227 233 244 248 246 244 243 243 242 242 241 239 237 235 235 237 238 238 240 242 244 246 247 249 251 253 255 256 257 258 260 262 266 269 272 275 278 279 279 280 283 283 282 282 286 289 291 291 290 290 291 293 294 294 296 298 299 300 302 304 306 309 309 310 310 311 312 313 315 316 318 319 321 324 326 328 330 331 333 335 338 340 342
215 223 226 228 237 246 249 247 245 244 244 242 241 241 239 237 237 238 238 239 240 242 244 245 247 249 251 253 255 257 258 259 261 263 266 269 271 273 276 277 277 278 281 283 283 283 285 287 289 290 290 290 291 292 293 294 297 298 298 300 303 306 307 308 308 309 309 310 311 313 314 315 317 319 321 323 325 327 329 330 332 334 337 339 340
211 218 226 231 234 239 244 246 244 243 244 244 243 241 241 240 239 239 239 240 241 242 244 246 247 249 251 253 255 257 258 259 262 264 267 270 273 274 275 277 278 279 282 284 284 285 286 287 289 289 289 289 290 291 293 296 298 297 297 301 304 305 306 307 307 308 308 309 311 312 314 315 317 319 320 323 324 326 328 329 331 333 335 337 339
209 208 214 223 229 232 236 240 242 240 238 239 241 242 241 242 242 242 242 242 242 243 245 246 248 249 251 253 255 257 258 260 262 265 268 270 273 275 276 278 279 280 280 282 283 285 287 288 287 287 286 287 289 292 295 297 296 294 296 299 302 304 306 306 306 306 307 309 310 312 313 315 316 318 320 322 323 325 327 328 330 332 334 336 338
210 208 208 213 221 228 233 236 240 240 237 235 237 240 241 242 243 244 244 243 243 244 245 247 249 250 252 253 255 257 259 261 263 265 267 269 272 275 276 278 279 279 278 279 281 284 285 284 283 283 284 286 288 291 294 295 293 292 295 298 300 303 305 305 305 305 306 308 309 311 312 314 315 317 319 321 323 324 326 328 330 331 333 335 336
212 212 213 213 215 222 230 235 239 239 237 235 236 238 240 241 243 244 244 244 243 244 245 246 250 252 253 254 255 257 259 261 262 263 265 268 271 274 276 276 276 276 277 279 281 283 282 279 280 282 284 286 288 291 293 292 292 293 296 298 301 303 303 303 303 305 306 307 309 310 312 313 314 316 318 320 322 323 325 327 329 330 332 333 335
213 214 216 217 216 217 222 232 236 235 234 235 236 237 239 241 242 244 244 244 244 244 244 245 249 252 254 255 256 257 259 260 262 263 264 265 268 270 271 272 274 277 279 282 283 282 280 278 279 281 283 285 288 290 290 290 292 294 297 299 301 301 301 301 303 304 305 307 308 309 310 312 313 315 317 319 321 322 324 326 328 329 331 332 334
214 215 216 219 221 220 222 228 233 233 233 235 237 238 239 240 242 243 244 244 244 245 244 244 245 248 251 253 255 256 257 259 260 262 263 264 265 266 268 271 275 279 282 283 282 280 279 278 279 281 285 288 289 289 289 290 292 295 298 299 300 299 299 300 302 303 305 306 307 308 309 311 313 315 317 318 320 322 324 325 327 329 330 331 333
217 218 219 221 223 224 226 230 234 236 236 237 238 239 240 241 242 243 244 244 245 246 245 243 244 245 247 250 253 255 257 258 259 261 262 264 265 267 268 271 274 277 280 281 280 279 279 280 281 283 286 288 288 288 290 292 294 296 297 298 297 297 298 301 302 303 304 305 306 307 308 310 312 314 316 317 319 321 323 325 326 328 329 331 332
218 220 221 223 225 226 228 231 235 238 239 239 239 240 240 241 242 243 244 245 247 247 246 245 245 246 247 248 250 252 255 258 259 260 261 263 265 266 268 271 273 274 276 277 277 277 279 281 282 283 284 285 287 288 290 292 294 295 295 295 295 297 299 301 302 302 303 304 305 306 308 310 312 313 315 317 319 321 322 324 325 327 328 330 330
219 220 222 224 226 227 229 232 235 237 238 238 239 239 240 241 242 243 244 246 247 248 247 247 247 246 247 248 249 250 253 256 258 259 260 261 263 266 269 270 272 273 274 274 274 275 278 279 281 283 284 285 286 286 288 290 292 293 293 294 296 298 299 300 301 301 302 303 304 306 308 310 311 313 315 317 318 320 322 323 325 326 327 328 329
220 221 222 224 226 228 230 232 234 236 236 237 238 239 240 240 241 242 243 244 246 247 247 248 248 248 248 249 250 252 253 255 257 259 261 263 265 267 269 270 271 273 274 273 272 274 276 278 280 282 283 284 284 285 286 289 291 292 293 294 296 298 298 299 299 299 301 302 304 306 308 309 311 313 315 316 318 319 321 322 324 325 326 327 328
221 222 223 225 226 227 229 231 233 234 235 236 237 238 239 239 240 241 242 243 245 246 247 248 248 249 250 251 252 253 255 256 258 260 262 264 265 267 268 270 271 271 270 270 271 274 276 279 281 282 282 283 284 285 287 289 291 292 293 294 295 296 296 297 298 299 301 302 304 306 308 309 311 313 314 316 317 318 320 321 323 324 325 326 327
224 224 225 226 227 228 229 231 232 233 234 234 235 236 238 239 239 240 241 242 244 245 246 247 248 249 251 252 254 255 256 257 259 261 263 264 266 267 267 268 268 267 267 269 271 274 277 278 280 281 282 283 285 286 288 290 291 291 292 292 293 294 296 297 298 300 301 303 304 306 307 309 311 312 314 315 316 317 319 321 322 323 324 325 326
230 228 228 228 228 229 230 231 232 233 234 234 235 236 237 238 239 240 241 242 244 245 245 247 248 250 252 253 254 256 257 258 260 261 262 264 265 265 264 263 264 267 269 270 271 273 275 277 279 281 283 285 286 288 288 289 289 289 290 291 293 294 296 298 299 300 301 303 305 306 307 309 310 311 313 314 315 316 318 320 321 322 323 324 324
232 231 231 230 230 230 231 232 233 234 234 235 236 237 238 239 240 241 242 243 244 245 246 248 249 251 252 254 256 257 258 259 260 261 262 263 263 263 262 262 264 267 268 268 268 271 274 277 280 282 284 286 287 287 287 287 288 289 290 292 293 295 297 299 299 300 302 303 304 306 307 308 309 310 312 313 314 316 317 319 320 321 321 322 323
232 233 233 232 231 230 231 232 233 234 235 236 236 236 237 238 240 241 243 245 245 246 247 248 250 252 253 253 255 256 258 259 261 262 263 264 264 265 265 265 265 265 264 263 266 270 275 278 281 283 284 285 285 285 285 286 288 289 291 293 295 297 298 298 299 300 301 303 304 305 306 307 308 309 310 311 313 315 316 318 319 319 320 321 322
233 234 235 234 233 231 231 231 232 233 235 237 236 235 235 236 237 239 241 244 247 249 249 249 250 251 253 254 255 257 258 260 261 261 261 261 261 262 262 262 261 260 259 260 265 271 276 279 281 281 280 281 282 284 285 286 288 289 292 294 295 296 297 298 298 299 301 302 303 304 305 306 307 308 309 310 312 314 315 316 317 318 319 320 321
232 233 234 234 234 233 231 230 230 232 234 237 238 237 235 235 235 236 237 238 242 246 250 250 250 250 251 253 255 255 256 258 259 258 258 257 257 257 257 257 257 258 259 261 266 271 276 278 278 278 280 281 282 283 284 286 288 290 292 294 294 295 295 296 297 298 299 300 302 303 304 305 306 307 308 310 311 313 314 315 316 317 318 319 320
229 232 233 233 232 232 231 230 230 230 232 236 239 239 238 238 238 238 238 238 238 240 243 246 247 248 249 250 251 251 253 255 255 254 253 254 254 254 255 258 260 262 264 267 270 273 276 277 277 277 279 280 281 282 285 287 288 290 292 292 292 293 294 295 296 297 298 300 301 302 303 304 305 306 308 309 310 311 312 313 314 315 316 317 319
229 231 233 234 234 234 233 232 230 229 229 232 236 238 239 240 241 242 242 242 241 241 242 243 244 245 247 249 249 249 250 251 252 251 251 252 254 256 260 263 266 268 269 271 273 273 273 273 273 275 277 278 280 283 285 286 288 289 289 290 290 292 293 294 296 297 298 299 300 301 302 303 304 305 306 308 309 310 311 312 313 314 315 316 318
Height
10661 10664 10667 10670 10674 10677 10678 10679 10681 10684 10688 10692 10696 10698 10701 10704 10706 10708 10708 10708 10707 10707 10708 10709 10710 10709 10710 10710 10709 10708 10707 10705 10704 10704 10703 10701 10700 10699 10698 10697 10695 10694 10693 10692 10690 10689 10687 10686 10684 10683 10681 10680 10678 10676 10674 10672 10669 10667 10664 10661 10657 10653 10650 10646 10642 10637 10632 10627 10623 10617 10612 10607 10602 10598 10594 10589 10582 10575 10568 10561 10553 10545 10539 10534 10525
10655 10659 10661 10664 10669 10671 10671 10673 10676 10679 10684 10688 10690 10692 10695 10698 10700 10703 10703 10703 10703 10702 10703 10705 10705 10705 10705 10705 10705 10704 10702 10701 10700 10699 10699 10697 10696 10696 10694 10693 10692 10691 10690 10688 10687 10686 10684 10683 10681 10680 10678 10676 10675 10673 10671 10668 10666 10663 10661 10658 10654 10650 10646 10642 10639 10634 10628 10623 10618 10613 10608 10604 10599 10595 10591 10586 10580 10573 10565 10557 10550 10541 10534 10529 10523
10649 10653 10655 10659 10664 10664 10665 10668 10672 10675 10679 10682 10684 10686 10689 10692 10695 10697 10698 10698 10698 10697 10698 10700 10701 10700 10700 10700 10700 10699 10698 10696 10695 10695 10695 10693 10693 10692 10691 10690 10689 10687 10686 10685 10683 10682 10681 10679 10678 10676 10675 10673 10671 10669 10667 10665 10662 10660 10658 10655 10651 10647 10643 10638 10635 10632 10626 10621 10616 10611 10607 10602 10597 10592 10587 10582 10577 10570 10563 10554 10546 10538 10530 10523 10517
10643 10647 10650 10654 10657 10658 10661 10664 10668 10671 10674 10677 10678 10681 10684 10687 10690 10692 10693 10694 10693 10693 10694 10695 10696 10696 10696 10695 10695 10694 10693 10692 10691 10691 10691 10690 10689 10688 10688 10687 10686 10684 10683 10681 10680 10678 10677 10675 10674 10672 10671 10669 10668 10666 10664 10661 10659 10656 10654 10651 10647 10643 10639 10635 10631 10628 10624 10619 10614 10609 10604 10599 10594 10589 10584 10578 10572 10566 10559 10551 10543 10535 10526 10518 10511
10637 10641 10645 10648 10650 10653 10656 10660 10664 10667 10669 10671 10673 10675 10679 10682 10685 10687 10688 10689 10688 10689 10690 10690 10691 10691 10691 10690 10690 10689 10689 10688 10687 10687 10687 10686 10686 10685 10685 10684 10682 10681 10679 10677 10676 10674 10673 10672 10670 10669 10667 10665 10664 10662 10660 10658 10655 10653 10651 10648 10644 10640 10636 10632 10628 10624 10620 10616 10611 10606 10601 10595 10590 10585 10580 10575 10569 10562 10555 10547 10539 10531 10523 10515 10507
10631 10635 10639 10642 10645 10648 10652 10656 10659 10661 10663 10665 10667 10670 10674 10678 10680 10682 10683 10683 10684 10684 10685 10685 10686 10686 10686 10686 10685 10685 10684 10684 10684 10683 10683 10683 10682 10682 10681 10680 10678 10677 10675 10674 10672 10671 10669 10668 10666 10665 10664 10662 10660 10658 10657 10655 10652 10650 10647 10644 10640 10636 10632 10629 10625 10621 10617 10612 10607 10603 10598 10592 10587 10581 10576 10571 10565 10559 10552 10545 10537 10528 10520 10512 10504
10625 10629 10633 10637 10640 10643 10647 10651 10653 10656 10658 10660 10662 10665 10670 10673 10675 10676 10677 10678 10679 10679 10680 10681 10681 10681 10681 10681 10680 10680 10680 10680 10680 10680 10679 10679 10679 10678 10678 10676 10675 10673 10672 10670 10668 10667 10666 10664 10663 10662 10660 10658 10657 10655 10653 10651 10649 10646 10644 10641 10637 10633 10629 10625 10621 10617 10613 10609 10604 10599 10594 10589 10584 10578 10572 10567 10561 10555 10548 10542 10534 10526 10518 10510 10501
10620 10625 10628 10633 10637 10639 10642 10645 10648 10650 10653 10656 10658 10661 10665 10668 10670 10671 10672 10673 10673 10674 10675 10676 10676 10676 10676 10676 10675 10676 10676 10676 10676 10676 10676 10676 10675 10674 10673 10672 10671 10669 10668 10666 10665 10663 10662 10661 10659 10658 10656 10654 10653 10651 10649 10647 10645 10643 10640 10637 10633 10629 10625 10621 10618 10614 10610 10606 10601 10596 10591 10586 10581 10576 10569 10563 10558 10550 10543 10536 10530 10522 10514 10506 10498
10616 10619 10624 10628 10632 10634 10636 10639 10643 10645 10648 10651 10654 10656 10660 10662 10665 10666 10667 10667 10668 10669 10671 10671 10671 10671 10671 10671 10671 10672 10672 10671 10672 10672 10672 10672 10671 10670 10669 10668 10667 10665 10664 10663 10661 10660 10659 10657 10655 10653 10652 10651 10649 10647 10646 10644 10642 10639 10636 10633 10630 10626 10622 10618 10614 10611 10607 10602 10598 10593 10588 10583 10577 10572 10566 10560 10554 10547 10540 10532 10525 10518 10509 10501 10493
10611 10615 10620 10624 10627 10628 10631 10635 10638 10641 10643 10647 10649 10651 10654 10657 10660 10661 10661 10661 10662 10664 10666 10666 10666 10666 10666 10666 10667 10667 10667 10667 10668 10669 10669 10668 10667 10666 10665 10664 10663 10662 10661 10659 10658 10656 10655 10653 10651 10650 10648 10647 10645 10643 10642 10640 10638 10635 10632 10629 10626 10622 10618 10615 10611 10607 10603 10599 10594 10589 10585 10579 10574 10568 10563 10557 10551 10544 10537 10530 10522 10515 10506 10496 10488
10608 10610 10615 10619 10620 10623 10626 10630 10634 10636 10638 10641 10644 10647 10649 10652 10654 10655 10656 10656 10657 10659 10661 10661 10661 10661 10661 10662 10662 10663 10663 10663 10664 10665 10665 10664 10663 10662 10661 10660 10659 10658 10657 10655 10654 10653 10651 10649 10647 10646 10645 10643 10641 10639 10638 10636 10634 10631 10628 10625 10622 10618 10614 10611 10607 10604 10599 10595 10590 10585 10581 10576 10570 10565 10560 10554 10548 10541 10534 10527 10520 10512 10503 10493 10485
10605 10606 10610 10613 10615 10618 10622 10626 10629 10630 10633 10636 10639 10642 10645 10647 10649 10650 10650 10651 10652 10654 10656 10656 10655 10656 10657 10657 10658 10658 10658 10659 10660 10660 10660 10660 10659 10658 10657 10656 10655 10654 10653 10652 10650 10649 10648 10646 10644 10642 10641 10640 10638 10636 10634 10632 10630 10627 10624 10621 10618 10614 10611 10607 10604 10600 10595 10591 10586 10581 10577 10572 10567 10562 10557 10551 10545 10538 10531 10524 10517 10509 10500 10490 10481
10599 10599 10603 10607 10610 10613 10618 10622 10623 10625 10628 10631 10634 10638 10640 10642 10644 10644 10645 10647 10648 10650 10651 10650 10650 10651 10652 10652 10653 10654 10654 10654 10656 10656 10656 10655 10655 10654 10653 10652 10652 10650 10649 10648 10647 10646 10644 10642 10640 10639 10638 10637 10635 10633 10631 10629 10626 10624 10621 10617 10614 10611 10607 10603 10600 10596 10591 10587 10583 10578 10573 10569 10564 10558 10553 10548 10541 10535 10528 10521 10514 10506 10497 10487 10478
10590 10592 10596 10601 10605 10609 10614 10617 10618 10620 10622 10625 10630 10634 10635 10637 10639 10640 10641 10642 10643 10645 10645 10645 10646 10647 10647 10648 10649 10650 10650 10650 10651 10652 10651 10651 10651 10651 10650 10649 10648 10646 10645 10644 10643 10642 10640 10639 10637 10636 10635 10634 10632 10630 10627 10625 10622 10620 10617 10614 10611 10607 10604 10600 10596 10592 10588 10584 10579 10575 10570 10566 10561 10555 10549 10544 10538 10531 10525 10518 10511 10503 10494 10485 10476
10583 10586 10590 10594 10599 10604 10609 10611 10612 10615 10617 10621 10626 10629 10630 10632 10633 10635 10636 10637 10639 10640 10640 10641 10641 10642 10643 10644 10645 10646 10646 10646 10647 10647 10647 10647 10647 10647 10646 10645 10644 10643 10641 10640 10639 10638 10637 10635 10634 10633 10632 10630 10628 10626 10624 10621 10619 10616 10613 10610 10607 10603 10600 10596 10592 10588 10584 10580 10576 10572 10567 10562 10558 10552 10546 10540 10534 10528 10521 10515 10508 10500 10492 10482 10474
10576 10581 10585 10588 10593 10599 10603 10605 10607 10610 10612 10616 10620 10623 10624 10626 10628 10629 10631 10632 10634 10635 10635 10636 10636 10637 10639 10640 10641 10642 10641 10641 10643 10643 10642 10642 10643 10642 10642 10641 10640 10639 10637 10636 10635 10634 10632 10631 10631 10629 10628 10626 10624 10622 10620 10617 10614 10611 10609 10606 10603 10599 10595 10592 10588 10584 10580 10577 10572 10568 10563 10559 10554 10549 10542 10536 10530 10524 10518 10511 10504 10497 10488 10479 10470
10571 10576 10580 10583 10587 10593 10596 10598 10601 10604 10606 10611 10615 10617 10618 10620 10622 10624 10625 10627 10629 10630 10631 10631 10631 10633 10635 10636 10637 10637 10636 10636 10638 10638 10638 10638 10638 10638 10637 10636 10635 10634 10633 10632 10631 10629 10628 10627 10627 10626 10624 10622 10620 10618 10616 10613 10610 10607 10604 10601 10598 10595 10591 10587 10584 10580 10577 10573 10569 10564 10560 10555 10550 10545 10539 10533 10527 10521 10515 10508 10501 10494 10485 10477 10468
10566 10571 10575 10577 10581 10586 10589 10591 10594 10597 10601 10606 10609 10610 10612 10614 10616 10618 10620 10622 10624 10625 10626 10626 10627 10629 10631 10631 10632 10632 10631 10632 10633 10633 10633 10633 10633 10633 10632 10632 10631 10630 10629 10628 10626 10625 10624 10623 10623 10622 10619 10617 10616 10614 10611 10609 10606 10603 10599 10596 10594 10590 10587 10583 10580 10577 10573 10570 10565 10561 10556 10552 10547 10542 10536 10530 10524 10518 10512 10505 10498 10491 10483 10474 10465
10561 10565 10568 10569 10572 10577 10580 10582 10587 10591 10595 10600 10602 10604 10606 10608 10610 10612 10614 10618 10620 10620 10621 10622 10622 10624 10626 10626 10627 10627 10627 10628 10628 10628 10628 10628 10628 10628 10628 10627 10626 10625 10624 10623 10622 10621 10619 10619 10619 10617 10614 10613 10612 10609 10607 10605 10602 10599 10596 10593 10589 10586 10583 10579 10576 10573 10570 10566 10562 10557 10553 10549 10544 10538 10533 10527 10521 10514 10508 10501 10495 10488 10480 10472 10463
10556 10559 10560 10561 10565 10570 10573 10575 10580 10585 10589 10593 10596 10598 10600 10602 10604 10607 10610 10613 10615 10615 10616 10617 10617 10619 10621 10621 10622 10623 10623 10623 10624 10624 10624 10623 10623 10623 10623 10623 10622 10621 10620 10618 10617 10616 10615 10614 10613 10612 10610 10608 10606 10604 10603 10601 10598 10595 10592 10589 10585 10583 10579 10575 10572 10569 10566 10562 10558 10553 10549 10545 10540 10534 10529 10523 10517 10511 10505 10498 10491 10484 10477 10469 10461
10548 10553 10555 10556 10559 10564 10567 10569 10574 10579 10583 10585 10588 10591 10593 10596 10600 10601 10604 10608 10611 10611 10611 10611 10612 10614 10616 10616 10617 10619 10619 10619 10619 10620 10619 10618 10618 10618 10618 10618 10617 10616 10615 10613 10612 10611 10610 10609 10608 10607 10605 10603 10601 10600 10598 10596 10593 10590 10587 10584 10581 10578 10575 10571 10567 10565 10561 10557 10553 10549 10545 10540 10535 10530 10525 10520 10513 10507 10501 10495 10489 10482 10475 10467 10459
10541 10546 10549 10551 10554 10557 10560 10564 10568 10572 10576 10578 10581 10585 10588 10591 10594 10596 10599 10604 10606 10605 10605 10606 10607 10608 10610 10611 10613 10615 10616 10615 10615 10615 10614 10613 10613 10613 10613 10612 10611 10610 10609 10608 10608 10607 10605 10604 10603 10602 10600 10598 10595 10594 10593 10591 10588 10585 10582 10579 10576 10573 10570 10566 10563 10560 10557 10553 10549 10545 10541 10536 10531 10527 10522 10517 10511 10504 10497 10491 10485 10479 10472 10464 10456
10535 10540 10543 10545 10548 10551 10554 10558 10561 10565 10568 10571 10575 10579 10581 10584 10587 10590 10594 10598 10600 10599 10600 10600 10601 10603 10605 10607 10609 10611 10611 10610 10609 10609 10608 10607 10607 10607 10607 10606 10604 10604 10604 10603 10602 10602 10601 10599 10597 10597 10596 10594 10591 10590 10588 10586 10584 10581 10577 10574 10571 10568 10565 10562 10559 10556 10553 10549 10545 10541 10537 10532 10528 10523 10518 10513 10508 10502 10495 10488 10482 10476 10468 10460 10453
10531 10535 10538 10540 10543 10545 10548 10551 10554 10558 10561 10565 10569 10572 10575 10578 10582 10585 10589 10592 10593 10593 10594 10594 10595 10598 10600 10603 10604 10606 10606 10604 10603 10604 10603 10602 10601 10602 10602 10601 10599 10599 10599 10598 10598 10597 10596 10594 10593 10592 10590 10588 10587 10585 10583 10581 10578 10575 10571 10569 10566 10563 10561 10559 10555 10552 10549 10545 10541 10537 10533 10528 10523 10519 10515 10509 10504 10499 10493 10487 10480 10474 10466 10459 10451
10527 10529 10533 10536 10538 10540 10543 10546 10549 10552 10555 10559 10562 10565 10568 10573 10577 10579 10583 10585 10586 10586 10587 10588 10591 10593 10596 10597 10598 10600 10601 10599 10597 10598 10598 10597 10596 10596 10596 10596 10595 10594 10595 10594 10593 10593 10591 10589 10588 10586 10584 10582 10581 10580 10577 10575 10573 10570 10567 10564 10562 10559 10557 10555 10551 10548 10545 10541 10536 10532 10528 10524 10519 10515 10511 10506 10501 10496 10490 10484 10478 10471 10464 10456 10448
10526 10526 10528 10531 10534 10536 10539 10542 10544 10547 10550 10552 10555 10558 10563 10567 10571 10573 10575 10577 10578 10579 10581 10583 10587 10589 10590 10592 10593 10595 10596 10593 10591 10592 10592 10591 10591 10591 10592 10591 10590 10590 10591 10589 10588 10588 10586 10584 10583 10581 10579 10577 10576 10574 10572 10570 10568 10565 10562 10560 10558 10555 10553 10550 10547 10544 10540 10537 10532 10528 10524 10520 10515 10510 10506 10502 10498 10492 10486 10480 10474 10467 10460 10453 10445
10524 10524 10524 10526 10530 10533 10536 10537 10538 10541 10543 10545 10548 10552 10557 10561 10564 10566 10568 10570 10572 10574 10576 10579 10581 10582 10584 10586 10588 10590 10591 10588 10585 10585 10586 10586 10587 10587 10587 10587 10586 10585 10585 10584 10583 10582 10581 10579 10577 10575 10573 10572 10570 10568 10567 10565 10562 10560 10558 10555 10553 10551 10548 10546 10543 10539 10535 10532 10528 10524 10520 10515 10511 10506 10501 10497 10493 10488 10482 10476 10470 10463 10457 10449 10442
10519 10521 10521 10523 10526 10529 10531 10532 10534 10536 10537 10539 10542 10546 10550 10555 10558 10559 10560 10562 10565 10569 10571 10573 10575 10576 10579 10582 10583 10584 10585 10583 10579 10579 10581 10582 10582 10583 10583 10582 10581 10581 10579 10578 10576 10576 10575 10574 10572 10570 10568 10567 10565 10563 10561 10560 10557 10555 10553 10551 10548 10546 10543 10541 10538 10534 10530 10527 10523 10519 10515 10511 10506 10502 10497 10493 10488 10483 10478 10471 10465 10459 10452 10446 10438
10514 10519 10520 10520 10521 10523 10526 10527 10529 10531 10532 10534 10537 10540 10544 10548 10550 10551 10553 10556 10560 10563 10566 10567 10569 10571 10574 10576 10577 10578 10579 10578 10575 10575 10577 10577 10577 10577 10577 10577 10577 10576 10574 10571 10569 10570 10570 10569 10567 10565 10564 10562 10560 10558 10557 10555 10552 10550 10548 10545 10543 10540 10537 10535 10532 10529 10525 10522 10519 10515 10510 10506 10501 10497 10493 10489 10484 10479 10473 10467 10461 10455 10449 10442 10435
10508 10514 10516 10515 10514 10515 10519 10521 10523 10525 10527 10528 10531 10534 10538 10541 10542 10544 10547 10551 10555 10558 10560 10562 10564 10566 10568 10570 10571 10572 10573 10572 10570 10571 10573 10573 10572 10572 10573 10573 10572 10571 10569 10565 10562 10563 10564 10563 10561 10560 10559 10557 10555 10553 10551 10549 10547 10545 10542 10540 10537 10535 10532 10529 10526 10523 10520 10517 10514 10510 10506 10501 10497 10492 10488 10484 10479 10474 10469 10463 10457 10452 10446 10439 10432
10498 10503 10506 10507 10507 10508 10511 10514 10517 10520 10521 10523 10526 10529 10532 10534 10536 10538 10541 10545 10549 10552 10554 10557 10558 10560 10562 10564 10564 10566 10566 10565 10565 10567 10568 10567 10568 10568 10568 10569 10569 10566 10564 10562 10558 10556 10557 10556 10555 10554 10553 10551 10549 10547 10545 10542 10541 10539 10537 10534 10532 10530 10527 10523 10520 10517 10514 10511 10508 10504 10500 10496 10491 10487 10483 10479 10474 10469 10464 10459 10453 10447 10441 10435 10428
10484 10491 10497 10500 10503 10507 10509 10510 10512 10514 10516 10518 10521 10524 10526 10528 10530 10532 10535 10539 10543 10546 10548 10551 10552 10554 10555 10557 10558 10559 10559 10558 10559 10561 10562 10561 10562 10563 10563 10565 10565 10562 10559 10558 10555 10552 10551 10550 10549 10548 10547 10545 10543 10540 10538 10537 10535 10533 10531 10529 10526 10524 10521 10518 10515 10512 10509 10505 10501 10498 10494 10490 10486 10482 10478 10474 10469 10464 10459 10454 10449 10443 10438 10432 10426
10474 10484 10490 10495 10501 10506 10507 10506 10507 10509 10512 10514 10516 10518 10521 10523 10524 10525 10529 10533 10537 10540 10542 10544 10546 10547 10549 10551 10552 10552 10551 10552 10553 10555 10555 10555 10555 10556 10557 10558 10558 10555 10552 10550 10549 10547 10546 10546 10544 10543 10541 10538 10536 10534 10532 10531 10530 10527 10525 10523 10521 10518 10516 10513 10509 10507 10503 10500 10496 10492 10488 10485 10481 10477 10473 10468 10464 10459 10454 10449 10444 10439 10434 10429 10422
10468 10474 10478 10484 10492 10496 10496 10496 10499 10502 10507 10510 10511 10512 10515 10516 10517 10519 10523 10527 10530 10533 10536 10537 10539 10541 10542 10544 10545 10544 10544 10546 10548 10548 10549 10549 10548 10548 10549 10550 10549 10548 10546 10544 10542 10542 10542 10541 10539 10537 10534 10532 10530 10528 10526 10526 10524 10521 10519 10517 10515 10512 10509 10506 10504 10501 10498 10494 10490 10486 10482 10479 10475 10471 10467 10463 10459 10455 10450 10445 10439 10434 10429 10424 10418
10460 10463 10465 10470 10478 10483 10484 10486 10488 10491 10496 10501 10503 10505 10508 10509 10511 10514 10517 10520 10524 10527 10528 10530 10532 10533 10534 10536 10537 10536 10537 10539 10541 10542 10542 10542 10541 10541 10543 10543 10541 10539 10539 10538 10536 10537 10537 10535 10532 10531 10529 10526 10524 10523 10521 10519 10518 10516 10513 10511 10509 10507 10504 10501 10498 10496 10492 10488 10485 10481 10477 10473 10470 10466 10462 10458 10454 10449 10444 10439 10434 10429 10423 10419 10414
10449 10452 10455 10459 10465 10472 10478 10480 10479 10479 10485 10491 10494 10498 10501 10503 10506 10509 10511 10514 10517 10519 10522 10524 10524 10523 10525 10528 10529 10529 10529 10531 10533 10535 10535 10535 10535 10535 10535 10536 10534 10531 10531 10532 10532 10532 10531 10529 10526 10525 10523 10520 10518 10517 10516 10514 10512 10510 10508 10505 10503 10501 10498 10495 10492 10489 10486 10482 10478 10475 10471 10468 10464 10460 10457 10452 10448 10444 10439 10434 10429 10424 10418 10414 10409
10437 10441 10445 10449 10454 10460 10465 10468 10467 10469 10475 10480 10485 10490 10494 10497 10500 10502 10504 10508 10510 10511 10516 10520 10519 10515 10516 10520 10522 10522 10523 10524 10526 10528 10529 10528 10528 10528 10528 10528 10527 10525 10524 10525 10526 10526 10524 10522 10519 10517 10516 10514 10513 10512 10510 10508 10506 10505 10502 10499 10497 10494 10491 10489 10486 10482 10479 10476 10472 10468 10465 10462 10458 10454 10451 10447 10443 10439 10434 10429 10424 10419 10413 10408 10403
10429 10433 10437 10441 10446 10449 10451 10453 10455 10460 10466 10472 10477 10483 10487 10490 10493 10495 10497 10500 10502 10505 10510 10514 10512 10509 10510 10513 10515 10516 10516 10517 10518 10521 10521 10520 10521 10521 10521 10522 10522 10520 10518 10518 10518 10517 10516 10514 10512 10510 10508 10507 10507 10506 10504 10502 10500 10499 10496 10493 10490 10487 10485 10482 10479 10476 10472 10469 10466 10462 10458 10455 10452 10448 10445 10441 10437 10433 10428 10423 10418 10414 10408 10403 10398
10422 10426 10430 10433 10438 10441 10443 10446 10450 10455 10461 10466 10471 10475 10479 10482 10485 10487 10490 10493 10495 10498 10502 10504 10503 10503 10506 10508 10509 10509 10509 10509 10511 10513 10512 10512 10513 10514 10515 10517 10517 10514 10513 10512 10511 10509 10507 10507 10505 10503 10501 10500 10499 10499 10498 10496 10494 10492 10490 10487 10484 10481 10478 10476 10472 10469 10465 10462 10459 10456 10452 10448 10445 10442 10438 10435 10431 10427 10422 10418 10413 10408 10403 10398 10393
10415 10420 10423 10426 10430 10434 10438 10442 10447 10451 10456 10460 10463 10467 10471 10474 10477 10480 10483 10485 10488 10491 10493 10494 10495 10498 10500 10501 10502 10503 10502 10502 10504 10505 10505 10505 10506 10507 10508 10510 10510 10508 10508 10507 10505 10502 10500 10499 10497 10495 10495 10494 10492 10492 10492 10490 10488 10486 10484 10480 10477 10474 10472 10469 10465 10462 10458 10455 10452 10449 10445 10442 10439 10436 10432 10428 10425 10420 10416 10412 10407 10402 10397 10393 10388
10407 10411 10416 10419 10423 10427 10432 10436 10441 10445 10449 10452 10455 10459 10463 10466 10469 10472 10475 10478 10480 10482 10484 10485 10488 10490 10492 10493 10495 10496 10495 10495 10496 10498 10498 10498 10500 10500 10501 10501 10502 10502 10502 10501 10498 10495 10494 10492 10490 10488 10488 10487 10485 10485 10485 10484 10482 10479 10477 10473 10470 10467 10465 10462 10458 10455 10451 10448 10445 10442 10439 10435 10432 10429 10425 10421 10418 10414 10410 10405 10401 10397 10392 10387 10382
10400 10404 10409 10413 10417 10421 10425 10430 10434 10438 10441 10445 10448 10451 10455 10458 10461 10464 10467 10470 10472 10473 10475 10478 10481 10482 10482 10485 10487 10488 10489 10489 10489 10490 10490 10491 10492 10493 10493 10493 10494 10495 10494 10492 10489 10487 10486 10485 10483 10481 10480 10478 10477 10477 10478 10477 10475 10472 10469 10466 10463 10460 10458 10455 10451 10448 10445 10441 10438 10435 10432 10428 10425 10422 10418 10415 10411 10407 10403 10399 10395 10391 10386 10381 10377
10393 10398 10402 10406 10410 10414 10418 10423 10426 10430 10434 10437 10440 10443 10446 10450 10453 10456 10459 10462 10463 10465 10468 10471 10472 10472 10473 10477 10480 10481 10482 10482 10482 10482 10483 10483 10484 10485 10486 10485 10486 10487 10485 10482 10480 10479 10478 10476 10475 10473 10472 10470 10470 10470 10470 10468 10466 10463 10461 10457 10455 10453 10450 10447 10443 10440 10437 10434 10431 10427 10424 10421 10418 10415 10411 10408 10404 10401 10397 10393 10389 10385 10380 10376 10371
10386 10391 10395 10399 10403 10406 10410 10414 10418 10421 10425 10428 10431 10434 10438 10441 10445 10448 10451 10453 10455 10458 10461 10463 10462 10463 10466 10470 10472 10473 10474 10474 10474 10474 10474 10474 10475 10478 10479 10477 10476 10476 10476 10474 10473 10471 10469 10467 10465 10464 10463 10462 10462 10463 10462 10460 10457 10455 10452 10449 10447 10445 10443 10440 10436 10432 10429 10427 10424 10420 10416 10414 10411 10408 10404 10401 10397 10394 10391 10387 10382 10378 10374 10370 10366
10380 10384 10387 10391 10395 10399 10402 10406 10410 10413 10417 10420 10424 10427 10430 10433 10436 10439 10442 10445 10447 10450 10453 10453 10454 10456 10460 10462 10463 10464 10465 10465 10466 10466 10466 10466 10467 10469 10470 10468 10466 10466 10467 10466 10464 10462 10461 10459 10457 10456 10455 10454 10454 10454 10452 10451 10449 10446 10443 10441 10439 10437 10435 10432 10429 10425 10421 10419 10416 10412 10409 10406 10403 10400 10397 10394 10390 10387 10384 10380 10376 10372 10368 10364 10360
10373 10377 10380 10383 10388 10392 10396 10400 10403 10406 10409 10412 10415 10418 10422 10426 10428 10431 10435 10438 10440 10443 10445 10446 10448 10450 10452 10454 10455 10455 10455 10455 10456 10457 10458 10458 10459 10459 10460 10460 10459 10459 10459 10457 10455 10453 10453 10451 10450 10448 10447 10447 10446 10444 10443 10441 10440 10437 10434 10432 10431 10429 10427 10424 10421 10417 10414 10411 10408 10405 10401 10398 10396 10393 10390 10387 10384 10380 10377 10374 10370 10366 10362 10358 10354
10368 10371 10374 10378 10382 10386 10389 10393 10396 10399 10401 10404 10407 10411 10415 10418 10421 10424 10427 10429 10432 10435 10437 10439 10441 10443 10445 10446 10447 10447 10446 10447 10448 10449 10450 10450 10450 10450 10451 10451 10451 10452 10451 10448 10446 10446 10447 10445 10442 10440 10440 10439 10437 10435 10433 10432 10431 10429 10427 10425 10423 10421 10419 10416 10413 10409 10406 10403 10401 10398 10395 10391 10388 10385 10383 10380 10377 10374 10370 10366 10363 10360 10356 10352 10348
10363 10365 10368 10372 10376 10379 10383 10386 10390 10392 10394 10396 10399 10403 10408 10411 10414 10417 10420 10422 10425 10427 10429 10432 10434 10436 10437 10438 10439 10439 10439 10440 10441 10442 10443 10443 10442 10442 10443 10443 10442 10443 10442 10440 10439 10440 10440 10438 10435 10434 10433 10432 10430 10427 10425 10424 10422 10422 10421 10418 10415 10412 10410 10408 10405 10402 10399 10396 10394 10391 10388 10384 10381 10378 10375 10373 10370 10367 10363 10359 10356 10353 10349 10346 10342
10358 10360 10362 10366 10370 10373 10377 10380 10383 10386 10388 10389 10391 10396 10400 10404 10407 10410 10413 10416 10419 10420 10421 10424 10427 10429 10430 10431 10432 10432 10433 10433 10433 10434 10435 10435 10434 10434 10435 10434 10433 10433 10434 10435 10435 10434 10432 10430 10428 10426 10425 10424 10422 10419 10417 10415 10414 10413 10413 10411 10407 10404 10402 10400 10397 10394 10391 10389 10386 10383 10380 10377 10374 10371 10367 10364 10362 10359 10356 10352 10349 10346 10342 10339 10335
10353 10355 10357 10360 10363 10366 10369 10372 10375 10379 10382 10384 10386 10389 10393 10397 10400 10403 10406 10409 10413 10414 10414 10416 10419 10421 10422 10424 10425 10425 10426 10426 10425 10426 10426 10426 10426 10425 10425 10424 10424 10424 10425 10426 10427 10426 10424 10422 10420 10418 10417 10415 10414 10411 10409 10407 10405 10404 10404 10402 10398 10395 10393 10391 10388 10385 10383 10381 10378 10374 10371 10368 10365 10363 10360 10357 10354 10351 10348 10345 10341 10338 10335 10332 10328
10347 10349 10351 10353 10356 10359 10361 10364 10368 10373 10376 10379 10381 10384 10387 10390 10393 10395 10398 10401 10404 10405 10407 10409 10412 10413 10415 10416 10417 10418 10418 10417 10417 10417 10417 10418 10418 10417 10416 10416 10416 10416 10415 10416 10417 10416 10415 10414 10412 10410 10408 10407 10405 10403 10401 10399 10397 10395 10393 10391 10388 10386 10384 10382 10379 10377 10375 10372 10369 10365 10362 10360 10357 10354 10352 10350 10347 10344 10341 10337 10334 10331 10328 10324 10320